• en France
  • Liste des pays
  • À 7 jours
  • Température de l'eau
  • Carte satellitaire
  • Carte météo
  • Widgets météo
  • user-avatar
    Se connecter

    Météo par heure à Yastrebki

    Ce jour, 21 Septembre, Vendredi

    Heure Température Précipitation Vent Pression Humidité
    00:00 +14°C° 0 mm 2 m/s 752 mmHg 90%
    01:00 +14°C° 0 mm 1 m/s 752 mmHg 90%
    02:00 +14°C° 0 mm 1 m/s 753 mmHg 91%
    03:00 +13°C° 0 mm 1 m/s 753 mmHg 91%
    04:00 +13°C° 0 mm 1 m/s 753 mmHg 91%
    05:00 +13°C° 0 mm 1 m/s 753 mmHg 91%
    06:00 +13°C° 0 mm 1 m/s 754 mmHg 92%
    07:00 +15°C° 0 mm 1 m/s 754 mmHg 86%
    08:00 +16°C° 0 mm 2 m/s 754 mmHg 80%
    09:00 +18°C° 0 mm 2 m/s 754 mmHg 73%
    10:00 +20°C° 0 mm 2 m/s 754 mmHg 68%
    11:00 +21°C° 0 mm 2 m/s 755 mmHg 63%
    12:00 +24°C° 0 mm 2 m/s 755 mmHg 57%
    13:00 +24°C° 0 mm 2 m/s 755 mmHg 55%
    14:00 +25°C° 0 mm 2 m/s 755 mmHg 53%
    15:00 +25°C° 0 mm 2 m/s 755 mmHg 50%
    16:00 +24°C° 0 mm 2 m/s 755 mmHg 55%
    17:00 +23°C° 0 mm 1 m/s 754 mmHg 60%
    18:00 +22°C° 0 mm 1 m/s 754 mmHg 65%
    19:00 +21°C° 0 mm 1 m/s 755 mmHg 68%
    20:00 +20°C° 0 mm 1 m/s 755 mmHg 71%
    21:00 +19°C° 0 mm 1 m/s 755 mmHg 74%
    22:00 +19°C° 0 mm 1 m/s 755 mmHg 76%
    23:00 +17°C° 0 mm 2 m/s 755 mmHg 78%

    Demain, 22 Septembre, Samedi

    Heure Température Précipitation Vent Pression Humidité
    00:00 +17°C° 0 mm 2 m/s 755 mmHg 80%
    01:00 +16°C° 0 mm 2 m/s 755 mmHg 82%
    02:00 +16°C° 0 mm 2 m/s 755 mmHg 84%
    03:00 +16°C° 0 mm 2 m/s 755 mmHg 86%
    04:00 +16°C° 0 mm 2 m/s 755 mmHg 87%
    05:00 +15°C° 0 mm 2 m/s 755 mmHg 88%
    06:00 +15°C° 0 mm 2 m/s 755 mmHg 89%
    07:00 +16°C° 0 mm 3 m/s 755 mmHg 82%
    08:00 +18°C° 0 mm 3 m/s 755 mmHg 76%
    09:00 +20°C° 0 mm 3 m/s 755 mmHg 69%
    10:00 +21°C° 0 mm 4 m/s 755 mmHg 64%
    11:00 +23°C° 0 mm 4 m/s 754 mmHg 58%
    12:00 +25°C° 0 mm 4 m/s 754 mmHg 53%
    13:00 +26°C° 0 mm 4 m/s 754 mmHg 52%
    14:00 +26°C° 0 mm 5 m/s 754 mmHg 50%
    15:00 +27°C° 0 mm 5 m/s 753 mmHg 49%
    16:00 +25°C° 0 mm 4 m/s 753 mmHg 54%
    17:00 +23°C° 0 mm 4 m/s 753 mmHg 59%
    18:00 +21°C° 0 mm 3 m/s 752 mmHg 64%
    19:00 +21°C° 0 mm 4 m/s 752 mmHg 65%
    20:00 +20°C° 0 mm 4 m/s 752 mmHg 66%
    21:00 +19°C° 0 mm 4 m/s 752 mmHg 67%
    22:00 +19°C° 0 mm 4 m/s 752 mmHg 66%
    23:00 +19°C° 0 mm 4 m/s 751 mmHg 65%

    Après-demain, 23 Septembre, Dimanche

    Heure Température Précipitation Vent Pression Humidité
    00:00 +17°C° 0 mm 5 m/s 751 mmHg 64%
    01:00 +17°C° 0 mm 5 m/s 751 mmHg 65%
    02:00 +17°C° 0 mm 5 m/s 750 mmHg 66%
    03:00 +16°C° 0 mm 5 m/s 750 mmHg 67%
    04:00 +16°C° 0 mm 5 m/s 749 mmHg 68%
    05:00 +16°C° 0 mm 5 m/s 749 mmHg 68%
    06:00 +15°C° 0 mm 5 m/s 748 mmHg 69%
    07:00 +16°C° 0 mm 6 m/s 748 mmHg 66%
    08:00 +17°C° 0 mm 7 m/s 747 mmHg 63%
    09:00 +20°C° 0 mm 7 m/s 747 mmHg 60%
    10:00 +21°C° 0 mm 7 m/s 747 mmHg 56%
    11:00 +22°C° 0 mm 8 m/s 746 mmHg 52%
    12:00 +23°C° 0 mm 8 m/s 746 mmHg 49%
    13:00 +21°C° 0.1 mm 8 m/s 746 mmHg 55%
    14:00 +18°C° 0.1 mm 7 m/s 746 mmHg 61%
    15:00 +17°C° 0.1 mm 7 m/s 746 mmHg 68%
    16:00 +15°C° 0.5 mm 7 m/s 746 mmHg 73%
    17:00 +13°C° 0.5 mm 6 m/s 746 mmHg 77%
    18:00 +10°C° 0.5 mm 6 m/s 746 mmHg 82%
    19:00 +9°C° 0.6 mm 5 m/s 746 mmHg 84%
    20:00 +9°C° 0.6 mm 5 m/s 747 mmHg 85%
    21:00 +9°C° 0.6 mm 5 m/s 747 mmHg 87%
    22:00 +10°C° 1.2 mm 4 m/s 747 mmHg 87%
    23:00 +10°C° 1.2 mm 4 m/s 747 mmHg 88%

    24 Septembre, Lundi

    Heure Température Précipitation Vent Pression Humidité
    00:00 +10°C° 1.2 mm 4 m/s 747 mmHg 89%
    01:00 +10°C° 0.2 mm 4 m/s 747 mmHg 89%
    02:00 +10°C° 0.2 mm 4 m/s 747 mmHg 88%
    03:00 +8°C° 0.2 mm 4 m/s 747 mmHg 88%
    04:00 +9°C° 0 mm 3 m/s 747 mmHg 90%
    05:00 +8°C° 0 mm 3 m/s 747 mmHg 92%
    06:00 +8°C° 0 mm 3 m/s 747 mmHg 94%
    07:00 +9°C° 0 mm 3 m/s 747 mmHg 89%
    08:00 +10°C° 0 mm 4 m/s 747 mmHg 84%
    09:00 +11°C° 0 mm 4 m/s 747 mmHg 79%
    10:00 +12°C° 0 mm 4 m/s 747 mmHg 71%
    11:00 +13°C° 0 mm 4 m/s 747 mmHg 64%
    12:00 +15°C° 0 mm 4 m/s 747 mmHg 56%
    13:00 +15°C° 0 mm 4 m/s 747 mmHg 55%
    14:00 +15°C° 0 mm 4 m/s 747 mmHg 54%
    15:00 +15°C° 0 mm 4 m/s 747 mmHg 53%
    16:00 +14°C° 0 mm 3 m/s 746 mmHg 57%
    17:00 +13°C° 0 mm 3 m/s 746 mmHg 61%
    18:00 +13°C° 0 mm 2 m/s 745 mmHg 66%
    19:00 +12°C° 0.1 mm 3 m/s 745 mmHg 67%
    20:00 +12°C° 0.1 mm 3 m/s 745 mmHg 67%
    21:00 +12°C° 0.1 mm 4 m/s 744 mmHg 68%
    22:00 +10°C° 0.9 mm 5 m/s 743 mmHg 73%
    23:00 +10°C° 0.9 mm 7 m/s 742 mmHg 77%

    25 Septembre, Mardi

    Heure Température Précipitation Vent Pression Humidité
    00:00 +10°C° 0.9 mm 8 m/s 741 mmHg 82%
    01:00 +10°C° 0.8 mm 9 m/s 740 mmHg 82%
    02:00 +10°C° 0.8 mm 9 m/s 738 mmHg 83%
    03:00 +9°C° 0.8 mm 10 m/s 737 mmHg 84%
    04:00 +10°C° 0.2 mm 9 m/s 736 mmHg 83%
    05:00 +10°C° 0.2 mm 9 m/s 735 mmHg 81%
    06:00 +10°C° 0.2 mm 8 m/s 735 mmHg 79%
    07:00 +9°C° 0.2 mm 8 m/s 734 mmHg 79%
    08:00 +9°C° 0.2 mm 8 m/s 734 mmHg 79%
    09:00 +9°C° 0.2 mm 8 m/s 733 mmHg 79%
    10:00 +8°C° 0.3 mm 9 m/s 733 mmHg 79%
    11:00 +8°C° 0.3 mm 9 m/s 733 mmHg 80%
    12:00 +8°C° 0.3 mm 9 m/s 733 mmHg 80%
    13:00 +9°C° 0.3 mm 8 m/s 734 mmHg 81%
    14:00 +9°C° 0.3 mm 8 m/s 734 mmHg 82%
    15:00 +9°C° 0.3 mm 8 m/s 734 mmHg 83%
    16:00 +9°C° 0.4 mm 7 m/s 734 mmHg 84%
    17:00 +9°C° 0.4 mm 7 m/s 734 mmHg 85%
    18:00 +9°C° 0.4 mm 7 m/s 735 mmHg 87%
    19:00 +8°C° 0.3 mm 7 m/s 735 mmHg 86%
    20:00 +8°C° 0.3 mm 7 m/s 736 mmHg 86%
    21:00 +7°C° 0.3 mm 8 m/s 737 mmHg 85%
    22:00 +7°C° 0.4 mm 8 m/s 737 mmHg 85%
    23:00 +7°C° 0.4 mm 8 m/s 738 mmHg 85%

    26 Septembre, Mercredi

    Heure Température Précipitation Vent Pression Humidité
    00:00 +7°C° 0.4 mm 8 m/s 739 mmHg 84%
    01:00 +6°C° 0.2 mm 8 m/s 740 mmHg 84%
    02:00 +6°C° 0.2 mm 8 m/s 740 mmHg 83%
    03:00 +6°C° 0.2 mm 8 m/s 741 mmHg 82%
    04:00 +6°C° 0.1 mm 8 m/s 742 mmHg 82%
    05:00 +5°C° 0.1 mm 8 m/s 743 mmHg 82%
    06:00 +5°C° 0.1 mm 8 m/s 744 mmHg 82%
    07:00 +5°C° 0.1 mm 8 m/s 744 mmHg 80%
    08:00 +5°C° 0.1 mm 8 m/s 745 mmHg 78%
    09:00 +5°C° 0.1 mm 8 m/s 746 mmHg 77%
    10:00 +5°C° 0 mm 7 m/s 746 mmHg 75%
    11:00 +5°C° 0 mm 7 m/s 747 mmHg 73%
    12:00 +5°C° 0 mm 6 m/s 747 mmHg 72%
    13:00 +5°C° 0 mm 6 m/s 748 mmHg 70%
    14:00 +6°C° 0 mm 5 m/s 748 mmHg 68%
    15:00 +6°C° 0 mm 5 m/s 748 mmHg 67%
    16:00 +6°C° 0 mm 4 m/s 748 mmHg 67%
    17:00 +7°C° 0 mm 3 m/s 748 mmHg 68%
    18:00 +7°C° 0 mm 2 m/s 749 mmHg 68%
    19:00 +6°C° 0 mm 2 m/s 749 mmHg 70%
    20:00 +6°C° 0 mm 2 m/s 749 mmHg 72%
    21:00 +5°C° 0 mm 2 m/s 749 mmHg 73%
    22:00 +5°C° 0 mm 2 m/s 749 mmHg 75%
    23:00 +4°C° 0 mm 2 m/s 749 mmHg 77%
    Voir plus